TimeCST,TemperatureF,Dew PointF,Humidity,Sea Level PressureIn,VisibilityMPH,Wind Direction,Wind SpeedMPH,Gust SpeedMPH,PrecipitationIn,Events,Conditions,WindDirDegrees,DateUTC
12:45 AM,41.0,35.6,81,30.44,8.0,Calm,Calm,-,N/A,,Clear,0,2012-11-16 06:45:00
1:45 AM,41.0,33.8,76,-9999,8.0,Calm,Calm,-,N/A,,Clear,0,2012-11-16 07:45:00
2:45 AM,39.2,33.8,81,29.99,8.0,Calm,Calm,-,N/A,,Clear,0,2012-11-16 08:45:00
3:45 AM,37.4,32.0,81,30.42,8.0,Calm,Calm,-,N/A,,Clear,0,2012-11-16 09:45:00
4:45 AM,37.4,32.0,81,-9999,6.0,Calm,Calm,-,N/A,,Clear,0,2012-11-16 10:45:00
5:45 AM,33.8,30.2,87,30.06,6.0,Calm,Calm,-,N/A,,Clear,0,2012-11-16 11:45:00
6:45 AM,-9999,-9999,N/A,30.44,6.0,Calm,Calm,-,N/A,,Clear,0,2012-11-16 12:45:00
7:41 AM,35.6,32.0,87,30.46,-9999.0,NE,3.5,-,N/A,,Clear,50,2012-11-16 13:41:00
8:40 AM,46.4,37.4,71,30.04,3.0,Calm,Calm,-,N/A,,Haze,0,2012-11-16 14:40:00
9:45 AM,53.6,39.2,58,30.47,5.0,Calm,Calm,-,N/A,,Clear,0,2012-11-16 15:45:00
10:45 AM,60.8,33.8,36,30.46,6.0,West,3.5,-,N/A,,Clear,260,2012-11-16 16:45:00
11:45 AM,66.2,33.8,30,29.96,10.0,NNW,3.5,-,N/A,,Partly Cloudy,330,2012-11-16 17:45:00
12:45 PM,68.0,33.8,28,30.41,15.0,NE,12.7,-,N/A,,Partly Cloudy,50,2012-11-16 18:45:00
1:45 PM,68.0,33.8,28,30.38,15.0,NE,12.7,-,N/A,,Scattered Clouds,40,2012-11-16 19:45:00
2:45 PM,68.0,32.0,26,29.86,8.0,NE,12.7,-,N/A,,Scattered Clouds,40,2012-11-16 20:45:00
3:45 PM,68.0,32.0,26,30.35,10.0,WSW,10.4,-,N/A,,Scattered Clouds,240,2012-11-16 21:45:00
4:45 PM,66.2,32.0,28,30.36,8.0,NE,11.5,-,N/A,,Scattered Clouds,40,2012-11-16 22:45:00
5:45 PM,60.8,33.8,36,29.83,7.0,NNE,10.4,-,N/A,,Scattered Clouds,30,2012-11-16 23:45:00
6:45 PM,55.4,39.2,54,30.40,7.0,NNE,11.5,-,N/A,,Scattered Clouds,30,2012-11-17 00:45:00
7:45 PM,53.6,41.0,62,30.43,7.0,North,-9999.0,-,N/A,,Scattered Clouds,0,2012-11-17 01:45:00
8:45 PM,50.0,41.0,71,30.07,7.0,ESE,4.6,-,N/A,,Scattered Clouds,110,2012-11-17 02:45:00
9:45 PM,48.2,39.2,71,30.48,7.0,SE,6.9,-,N/A,,Scattered Clouds,140,2012-11-17 03:45:00
10:45 PM,46.4,37.4,71,30.49,7.0,East,3.5,-,N/A,,Partly Cloudy,90,2012-11-17 04:45:00
11:45 PM,46.4,39.2,76,29.95,6.0,North,3.5,-,N/A,,Partly Cloudy,350,2012-11-17 05:45:00